Location: ????????
(52.0500°N, 54.4333°E)
Time: 16:53:28
(UTC+00:00)

Daily predictions for brighter satellites

Satellite Brightness Start Highest point End
(mag) Time Altitude Azimuth Time Altitude Azimuth Time Altitude Azimuth
COSMOS 2455 3.8 12:42:29 10° WSW 12:48:07 40° NW 12:53:47 10° NNE
ATLAS 3B R/B 4.4 12:43:34 10° NW 12:49:40 38° WSW 12:55:54 10° S
Okean O Rocket 1.6 12:47:12 10° SSE 12:51:31 82° ENE 12:55:55 10° NNW
Cosmos 2279 Rocket 4.0 12:45:18 10° N 12:51:37 83° E 12:57:54 10° SSE
STARLINK-67 2.5 12:49:29 10° W 12:52:15 77° N 12:55:01 10° ENE
Cosmos 1707 Rocket 3.7 12:48:05 10° S 12:52:30 63° E 12:56:57 10° NNE
Iridium 82 4.5 12:49:26 10° S 12:52:57 75° E 12:56:38 10° N
FENGYUN 3A 4.0 12:50:03 10° S 12:55:28 75° WSW 13:00:55 10° NNW
SL-16 R/B 4.1 12:50:56 10° N 12:56:05 29° NW 13:01:14 10° WSW
COSMOS 2428 2.8 12:52:28 10° SSW 12:58:08 74° ESE 13:03:50 10° NNE
USA 267 3.4 12:52:39 10° ESE 12:59:14 86° SSW 13:05:49 10° WNW
USA 229 DEB 4.4 12:53:07 10° NW 12:59:34 37° NNE 13:06:19 10° E
USA 229 4.4 12:53:13 10° NW 12:59:39 37° NNE 13:06:23 10° E
H-2A R/B 3.4 12:57:39 10° SE 13:00:57 32° ENE 13:04:17 10° N
Helios 1A Rocket 3.0 12:57:17 10° SSE 13:01:23 85° WSW 13:05:30 10° NNW
Meteor 1-5 Rocket 4.1 12:56:14 10° N 13:01:49 77° ENE 13:07:11 10° SSE
Meteor 1-28 Rocket 3.8 13:00:22 10° N 13:04:05 58° WNW 13:07:47 10° SSW
Cosmos 2251 Rocket 3.9 12:59:42 10° S 13:04:44 45° ESE 13:09:45 10° NE
STARLINK-46 2.7 13:02:16 10° WSW 13:04:54 63° SSE 13:07:23 11° E
NOSS 3-4 (A) 3.7 12:58:51 10° SW 13:04:55 74° NW 13:11:31 10° NE
NOSS 3-4 (C) 3.6 12:58:57 10° SW 13:05:02 74° NW 13:11:37 10° NE
Cosmos 1908 Rocket 4.1 13:04:54 10° N 13:08:59 35° ENE 13:12:59 10° SE
Genesis I 3.2 13:06:44 10° NW 13:10:38 61° NE 13:14:27 10° SE
Envisat 3.6 13:06:25 10° SE 13:10:55 33° ENE 13:15:26 10° N
Cosmos 1689 Rocket 2.1 13:08:40 10° NNE 13:11:44 89° ENE 13:14:45 10° SSW
CZ-4B R/B 3.6 13:06:31 10° S 13:11:51 68° WSW 13:17:19 10° NNW
Okean-O 3.3 13:09:14 10° SE 13:13:11 33° ENE 13:17:09 10° N
Nadezhda 4 Rocket 4.2 13:09:03 10° SSE 13:15:07 51° E 13:21:10 10° NNE
Feng Yun 1-1 Rocket 4.2 13:10:29 10° SSE 13:15:47 62° ENE 13:21:10 10° N
COSMO-SKYMED 1 4.3 13:14:29 12° ENE 13:15:51 14° E 13:18:02 10° ESE
Cosmos 1666 3.2 13:13:36 10° N 13:17:06 36° ENE 13:20:34 10° SE
Cosmos 1992 Rocket 4.1 13:12:11 10° NNW 13:17:27 84° WSW 13:22:41 10° SSE
Cosmos 2322 4.3 13:12:10 10° SW 13:17:46 56° NW 13:23:24 10° NNE
Cosmos 2278 Rocket 2.7 13:12:25 10° NW 13:18:04 66° WSW 13:23:39 10° SSE
RESURS DK-1 2.4 13:14:05 10° SSW 13:18:13 85° WNW 13:22:24 10° NNE
H-2A R/B 4.3 13:16:01 10° NNW 13:18:54 19° WNW 13:21:47 10° WSW
CZ-4B R/B 2.6 13:16:26 10° N 13:19:48 45° WNW 13:23:07 10° SW
Okean 1-7 4.4 13:17:16 10° SE 13:20:27 20° E 13:23:11 12° NE
Cosmos 2360 Rocket 3.4 13:17:07 10° WSW 13:22:21 37° NW 13:27:37 10° NNE
BREEZE-M DEB (TANK) 3.6 13:16:49 10° W 13:23:56 47° SSW 13:26:42 10° SE
YAOGAN 1 3.9 13:22:09 10° ESE 13:25:14 19° ENE 13:28:20 10° NNE
Cosmos 2369 Rocket 3.1 13:24:34 10° NNW 13:29:20 27° NE 13:33:30 12° E
Cosmos 1536 2.7 13:26:05 10° N 13:30:08 74° ENE 13:34:07 10° SSE
Cosmos 1980 Rocket 4.3 13:27:38 10° NW 13:30:26 14° NNW 13:33:13 10° NNE
Cosmos 1733 Rocket 3.5 13:26:33 10° NNW 13:30:55 66° W 13:35:16 10° S
BREEZE-M R/B 3.4 13:24:56 10° W 13:31:26 67° S 13:34:20 14° ESE
Cosmos 2026 Rocket 4.5 13:31:31 10° SSE 13:36:53 35° E 13:42:18 10° NNE
SL-16 R/B 3.2 13:32:54 10° SSE 13:37:37 28° ESE 13:40:42 17° ENE
SMAP 3.0 13:34:06 10° SSE 13:38:46 88° ENE 13:43:28 10° NNW
AQUARIUS 4.1 13:34:50 10° SSE 13:39:20 82° ENE 13:43:52 10° NNW
IRS-1C Rocket 4.2 13:34:21 10° SSE 13:39:37 84° WSW 13:44:56 10° NNW
Aureole 1 Rocket 3.2 13:37:13 10° SSE 13:39:52 28° ESE 13:40:52 23° ENE
NOSS 0 Rocket 3.9 13:34:28 10° SSW 13:40:41 78° ESE 13:46:33 12° NE
Lacrosse 5 rocket 1.3 13:37:26 10° WSW 13:41:43 88° NNW 13:44:17 22° ENE
ATLAS 2AS CENTAUR R/B 3.6 13:35:14 10° WSW 13:43:03 52° NNW 13:49:43 14° NE
Cosmos 1867 3.6 13:38:07 10° NW 13:43:34 60° NE 13:48:56 10° ESE
Cosmos 921 Rocket 3.0 13:40:40 10° NNW 13:44:54 57° ENE 13:49:10 10° SE
Cosmos 2237 Rocket 2.2 13:40:47 10° SSW 13:46:27 72° ESE 13:51:23 14° NE
CORIOLIS 4.2 13:41:16 10° SSE 13:46:43 88° ENE 13:52:13 10° NNW
SL-4 R/B 1.8 13:43:58 10° W 13:47:43 84° S 13:50:04 24° E
Cosmos 1743 3.2 13:44:43 10° N 13:48:20 36° ENE 13:51:55 10° SE
YAOGAN 6 3.1 13:45:09 10° SE 13:48:27 36° ENE 13:51:47 10° N
Cosmos 2333 Rocket 2.9 13:44:02 10° SW 13:49:40 54° NW 13:55:20 10° NNE
Cosmos 2322 Rocket 4.2 13:47:04 10° WNW 13:51:03 19° NNW 13:55:03 10° NNE
Okean 1 4.2 13:50:28 10° SSE 13:53:48 26° E 13:54:05 26° E
Ariane Rocket 4.2 13:54:37 21° NE 13:54:37 21° NE 13:58:03 10° N
Exosat Rocket 3.5 13:50:35 10° SSW 13:55:42 85° WNW 14:00:16 13° NNE
Cosmos 2219 Rocket 3.0 13:50:58 10° SW 13:56:25 49° NW 14:01:47 11° NNE
SeaSat 1 3.8 13:56:33 19° NE 13:56:57 19° NE 14:00:23 10° N
FALCON 9 DEB 4.1 13:55:38 10° SW 13:58:51 35° SSE 13:59:54 28° ESE
Cosmos 1943 Rocket 2.5 13:55:05 10° NNW 14:00:29 43° NE 14:04:37 16° ESE
SL-16 R/B 4.3 13:57:25 10° WNW 14:01:00 17° NNW 14:04:36 10° NNE
CZ-4 R/B 1.6 13:58:05 10° SE 14:01:44 41° ENE 14:05:23 10° N
Cosmos 292 Rocket 4.4 13:57:11 10° NNW 14:01:59 60° WSW 14:06:45 10° S
Cosmos 1812 3.6 13:59:38 10° SSW 14:03:24 50° WNW 14:07:12 10° N
Cosmos 1782 Rocket 3.4 13:59:40 10° N 14:04:02 67° ENE 14:08:21 10° SSE
SKYMED 2 4.2 14:03:07 29° ENE 14:04:27 35° E 14:08:27 10° SSE
USA 215 3.2 14:01:36 22° ENE 14:06:06 83° SSE 14:12:39 10° WSW
Lacrosse 4 Rocket 3.4 14:07:12 10° N 14:08:52 14° NNE 14:08:52 14° NNE
Cosmos 1627 Rocket 4.4 14:03:42 10° S 14:09:42 62° E 14:15:46 10° NNE
Okean 2 Rocket 3.5 14:08:05 10° N 14:12:20 40° ENE 14:16:34 10° SE
Cosmos 1190 Rocket 4.4 14:09:00 10° S 14:13:49 40° ESE 14:15:24 32° ENE
Cosmos 2195 Rocket 4.4 14:07:54 10° S 14:14:05 72° E 14:20:23 10° NNE
Sich 1 Rocket 3.5 14:09:44 10° N 14:14:08 65° ENE 14:18:30 10° SSE
CSL-04 Rocket 3.7 14:10:38 10° SE 14:15:45 54° ENE 14:20:57 10° N
Cosmos 1980 3.9 14:12:26 10° SW 14:18:03 70° WNW 14:22:21 18° NNE
Cosmos 1703 Rocket 3.5 14:13:56 10° S 14:18:25 79° E 14:21:58 16° NNE
Cosmos 1655 Rocket 4.4 14:14:14 10° SSE 14:19:55 37° E 14:23:02 23° NE
Cosmos 1975 2.8 14:18:36 10° N 14:22:33 54° ENE 14:26:29 10° SSE
Cosmos 2297 4.2 14:18:35 10° NW 14:24:15 64° WSW 14:29:50 10° SSE
Cosmos 1092 Rocket 4.0 14:18:27 10° S 14:24:46 85° W 14:31:04 10° N
STARLINK-67 3.2 14:23:53 10° WNW 14:26:07 53° WNW 14:26:07 53° WNW
STARLINK-52 3.7 14:23:34 10° SW 14:26:56 44° SSE 14:26:57 44° SSE
Cosmos 614 Rocket 3.9 14:25:18 10° S 14:30:19 63° ESE 14:32:04 39° NE
NOAA 15 4.4 14:25:11 10° SSE 14:30:25 74° ENE 14:35:40 10° NNW
COBE Rocket 4.4 14:27:05 10° N 14:31:39 55° WNW 14:36:12 10° SSW
Cosmos 1441 Rocket 4.2 14:29:15 10° NNW 14:32:57 46° W 14:36:34 10° S
CSL-04 Debris 4.0 14:29:14 10° SSE 14:34:39 75° ENE 14:40:06 10° NNW
STARLINK-29 3.6 14:31:36 10° SW 14:34:49 51° S 14:34:49 51° S
STARLINK-60 3.3 14:32:31 10° WSW 14:35:35 62° SSW 14:35:35 62° SSW
Cosmos 1174 3.8 14:32:03 10° SSW 14:36:48 65° SE 14:37:03 63° ESE
STARLINK-46 4.4 14:36:29 10° W 14:38:02 30° WNW 14:38:02 30° WNW
USA 116 4.5 14:37:56 43° NE 14:39:12 53° E 14:44:11 10° S
NOSS 3-1 (C) 3.9 14:34:41 10° NW 14:41:49 67° NE 14:45:57 32° ESE
COSMOS 2428 4.3 14:38:02 10° W 14:42:58 29° NW 14:46:55 14° NNE
Meteor 2-13 Rocket 4.5 14:38:18 10° SSE 14:44:06 51° E 14:45:54 39° NE
Okean-O 4.2 14:45:33 10° SSW 14:49:38 36° W 14:53:45 10° NNW
Envisat 4.1 14:45:00 10° S 14:49:50 44° W 14:54:43 10° NNW
USA 229 DEB 3.7 14:44:26 10° NW 14:51:36 74° NE 14:54:46 38° ESE
USA 229 3.7 14:44:32 10° NW 14:51:42 73° NE 14:54:48 38° ESE
Cosmos 1140 Rocket 3.3 14:46:47 10° S 14:51:51 65° ESE 14:52:07 63° E
Meteor 2-9 Rocket 4.2 14:46:11 10° NNW 14:52:07 87° E 14:57:56 10° SSE
COSMO-SKYMED 1 2.5 14:51:41 55° N 14:52:38 84° WNW 14:56:58 10° SSW
S3M 3.8 14:48:22 10° N 14:54:39 81° E 15:00:48 10° SSE
Meteor 1-18 Rocket 4.1 14:49:00 10° S 14:54:42 87° E 14:58:02 26° NNE
Cosmos 2344 4.2 14:46:21 10° NW 14:55:22 71° NE 15:02:18 29° ESE
NOSS 3-1 (A) 4.0 14:49:53 10° NW 14:56:57 62° NE 14:59:18 45° E
Okean 1-7 3.8 14:53:24 10° SSW 14:57:40 52° WNW 15:00:05 24° N
Uosat 12 SS-18 rocket 4.2 14:54:13 10° NW 14:59:10 74° SW 14:59:49 62° S
NOAA 11 4.1 14:53:53 10° SSE 14:59:21 89° ENE 15:04:54 10° NNW
Cosmos 407 Rocket 3.5 14:55:04 10° SSW 15:00:18 82° WNW 15:01:44 49° NNE
YAOGAN 1 2.9 14:56:38 10° S 15:00:55 65° WSW 15:05:15 10° NNW
CZ-4C R/B 4.2 14:57:20 10° SSE 14:57:36 11° SSE 14:57:36 11° SSE
Cosmos 1023 Rocket 4.2 14:56:35 10° SSW 15:01:40 78° ESE 15:01:51 77° E
Cosmos 2266 Rocket 4.3 14:59:45 10° SSE 15:04:37 46° SE 15:04:37 46° SE
H-2A R/B 4.4 15:10:43 10° N 15:10:43 10° N 15:10:49 10° N
Cosmos 1553 Rocket 4.3 15:00:11 10° NNW 15:06:31 70° W 15:12:53 10° S
Cosmos 2360 Rocket 4.4 15:05:05 10° NW 15:08:07 14° NNW 15:10:26 12° N
Cosmos 2369 Rocket 2.2 15:08:21 10° NNW 15:14:00 81° WSW 15:15:22 53° SSE
Cosmos 1980 Rocket 4.4 15:15:03 10° NNW 15:16:35 12° N 15:16:35 12° N
Lacrosse 5 rocket 2.8 15:17:15 10° W 15:19:56 32° NW 15:19:56 32° NW
SL-16 R/B 2.5 15:15:42 10° SW 15:21:21 64° NW 15:22:36 50° N
Cosmos 1656 Rocket 4.4 15:20:03 10° NNW 15:23:40 41° N 15:23:40 41° N
SL-4 R/B 3.6 15:23:26 10° W 15:25:41 33° W 15:25:41 33° W
Cosmos 2237 Rocket 3.8 15:26:05 10° WSW 15:31:03 30° NW 15:33:14 23° N
Ariane Rocket 4.0 15:34:49 37° NNW 15:34:49 37° NNW 15:37:52 10° NNW
SeaSat 1 3.9 15:36:20 28° NNW 15:36:20 28° NNW 15:38:41 10° NNW
Cosmos 2333 Rocket 4.3 15:31:22 10° WNW 15:35:19 18° NNW 15:37:20 16° N
ATLAS 2AS CENTAUR R/B 3.9 15:28:31 10° WNW 15:35:47 35° N 15:37:08 33° NNE
Cosmos 2315 Rocket 4.4 15:30:33 10° N 15:35:18 53° N 15:35:18 53° N
CZ-4 R/B 3.8 15:33:57 10° SW 15:36:58 21° W 15:39:58 10° NW
Cosmos 2219 Rocket 4.3 15:38:13 10° WNW 15:41:49 17° NNW 15:43:30 15° N
Meteor 2-4 Rocket 4.4 15:38:20 10° SSW 15:42:36 50° SSW 15:42:36 50° SSW
Cosmos 1943 Rocket 3.2 15:38:58 10° NW 15:44:17 43° WSW 15:46:15 32° SSW
USA 215 3.4 15:48:57 62° N 15:49:02 62° N 15:55:28 10° W
Lacrosse 4 Rocket 4.3 15:45:08 10° NNW 15:45:11 10° NNW 15:45:11 10° NNW
Lacrosse 5 4.5 16:01:42 10° SSW 16:01:59 11° SSW 16:01:59 11° SSW
